Theta_e
333 330 333 333 328 330 332 336 339 340 337 335 330 321 315 315 318 321 325 328 326 326 325 331 332 331 326 328 330 331 328 329 332 332 333 330 329 333 333 331 330 329 329
332 329 332 326 323 325 326 331 337 337 335 329 322 316 315 316 318 319 320 324 318 321 326 330 328 324 326 329 329 325 324 325 326 329 329 331 331 332 332 329 328 330 327
331 329 330 324 324 322 321 323 328 329 324 320 316 314 314 314 314 315 317 316 318 320 321 321 323 326 329 330 327 324 326 326 328 330 332 334 332 333 330 328 333 332 328
329 329 327 325 325 324 321 317 318 318 318 316 314 314 314 315 315 315 315 317 318 320 321 322 324 326 326 325 325 325 327 327 327 330 334 334 333 333 330 328 326 326 325
329 328 325 326 327 326 322 317 317 317 316 314 314 314 315 317 317 315 316 317 318 318 320 322 323 323 324 325 325 326 326 326 325 330 333 333 333 333 328 327 326 325 325
329 328 325 328 329 329 324 317 316 316 315 314 314 315 318 320 318 315 316 317 318 319 320 321 321 323 323 323 324 325 325 324 324 322 325 326 326 327 327 327 327 325 325
329 328 325 328 330 331 327 318 316 316 315 314 315 317 319 319 316 315 315 317 319 320 319 320 319 318 318 320 320 320 321 322 319 320 321 323 324 324 324 324 324 324 324
330 328 326 327 329 332 331 322 316 316 315 315 316 318 319 319 315 315 316 318 321 322 321 319 316 314 315 316 316 317 317 318 317 318 318 320 321 321 321 320 321 320 319
331 330 328 327 328 330 332 327 317 316 316 315 316 317 320 319 314 315 317 318 322 322 322 320 316 313 313 313 313 314 314 315 316 315 316 318 319 318 317 317 317 316 315
332 331 331 330 328 329 330 330 323 316 316 315 316 318 320 319 314 315 318 319 322 325 324 322 318 323 325 325 321 315 313 313 313 314 314 315 316 316 315 315 315 316 317
333 333 332 332 332 330 330 331 328 318 317 316 316 318 321 320 315 316 318 322 323 326 326 325 323 327 329 329 328 326 318 313 313 313 314 314 315 315 317 319 320 320 321
334 334 334 334 334 333 332 330 330 325 317 317 316 317 320 322 317 315 318 323 324 326 327 327 327 327 330 331 331 330 327 318 314 316 318 319 320 321 322 322 323 323 322
336 335 334 335 335 335 335 334 331 330 323 317 317 316 318 322 321 317 316 322 325 327 328 327 329 330 331 333 331 332 332 327 319 319 322 323 323 324 324 325 325 321 317
338 336 337 336 336 336 336 336 335 332 330 321 316 316 316 319 322 320 319 320 323 325 327 327 327 330 332 333 333 333 333 331 326 323 324 324 325 325 326 326 325 319 316
335 336 335 337 338 337 337 337 337 336 332 328 319 315 316 316 320 323 321 321 322 324 324 326 327 328 330 333 333 333 332 333 329 328 326 325 326 326 327 326 325 318 315
314 327 335 339 337 337 337 338 338 338 337 332 328 318 314 315 316 320 323 322 322 324 324 325 325 326 330 332 333 332 332 332 330 328 328 327 326 327 327 326 324 317 315
311 313 321 336 340 337 335 337 337 339 339 337 333 327 318 314 315 316 320 322 322 322 323 324 325 326 328 332 333 332 332 332 331 331 329 329 328 327 327 327 326 317 318
311 311 316 315 332 338 340 338 338 338 339 339 338 334 327 319 314 315 316 318 321 323 323 323 324 325 327 331 333 331 331 332 332 331 329 329 329 328 327 327 327 324 320
311 311 314 322 327 339 342 341 339 337 338 338 338 338 334 328 321 315 315 316 317 320 322 324 324 323 325 331 332 331 328 331 332 331 329 329 329 329 328 329 327 327 327
311 312 312 324 327 335 337 337 340 340 339 337 337 338 338 335 329 323 316 315 316 316 318 319 320 322 323 325 329 330 327 328 331 332 331 330 329 329 329 329 329 327 327
310 311 312 313 326 332 334 337 338 338 339 338 338 338 337 338 335 329 325 317 315 316 316 317 318 318 319 319 320 323 327 326 329 331 332 332 332 330 329 330 329 329 328
308 311 313 314 316 324 328 333 336 339 338 339 338 337 338 337 338 336 330 327 319 315 316 316 316 318 317 318 318 325 327 328 328 330 332 331 331 332 330 329 330 329 329
307 308 310 313 315 316 319 324 329 335 337 337 338 339 337 337 336 338 336 332 329 321 316 315 316 316 317 317 317 322 327 326 331 328 328 332 332 331 330 330 331 330 330
305 306 307 309 311 314 316 318 321 328 335 337 336 338 338 337 336 336 338 336 334 331 325 318 316 316 317 316 317 317 322 328 330 332 325 327 332 332 331 330 330 331 330
304 304 305 306 307 310 312 315 319 325 329 330 335 337 337 336 336 337 335 336 336 335 331 328 321 317 317 319 318 317 317 320 328 332 334 330 330 331 331 330 330 330 331
301 301 302 303 304 306 308 311 314 318 324 327 333 334 333 334 334 336 336 336 334 334 334 332 329 324 319 320 322 324 320 317 324 330 333 334 331 330 330 330 330 330 331
Wind_Speed
22 21 22 21 20 20 20 21 21 21 20 16 13 14 17 18 18 16 15 15 15 17 17 19 19 18 20 21 21 20 20 21 21 22 21 22 22 21 20 20 22 22 21
26 23 23 22 22 21 19 20 21 20 18 15 15 16 18 18 17 16 15 16 16 19 20 19 19 20 21 20 19 19 19 20 22 22 22 22 20 21 20 21 22 22 22
25 25 23 23 23 21 18 18 20 19 16 16 16 17 18 17 16 16 16 17 19 20 20 20 21 20 20 19 18 19 20 20 20 20 22 20 19 19 19 20 21 20 20
25 25 24 24 22 19 15 16 17 17 16 16 17 18 18 17 16 16 17 18 20 21 20 21 20 19 19 18 18 18 19 18 17 20 21 19 18 17 18 18 19 19 19
23 23 23 22 21 17 13 14 16 17 17 17 18 18 17 17 16 17 18 19 20 21 21 21 20 18 18 17 18 17 17 16 16 18 18 18 17 16 17 17 17 17 17
22 22 21 20 19 15 12 13 16 17 17 18 18 17 17 17 16 17 18 19 21 22 22 20 19 18 17 17 17 15 14 12 14 17 18 17 17 16 15 16 16 17 16
23 22 21 19 18 14 11 12 15 16 17 18 18 18 17 16 16 17 18 20 21 20 21 21 19 18 17 17 16 15 14 12 12 17 17 17 16 15 14 14 14 15 15
23 23 21 19 17 14 10 10 13 15 16 17 18 18 17 16 17 17 18 19 20 23 22 20 19 18 18 17 16 15 14 12 11 15 16 16 15 14 13 13 13 13 13
24 23 22 21 18 15 12 10 11 14 15 17 18 17 17 16 17 18 19 19 21 21 21 20 19 20 19 18 16 15 13 12 10 12 14 14 13 12 11 12 11 12 13
24 23 21 21 19 17 15 12 11 13 15 16 18 17 17 17 17 19 19 19 20 20 19 19 20 21 20 18 16 14 13 12 10 11 13 12 12 11 10 11 11 12 13
23 23 22 21 20 18 17 15 13 14 15 16 18 18 18 19 19 20 19 19 19 18 18 18 19 19 18 17 16 15 13 11 10 11 11 11 10 9 9 10 10 11 11
21 23 22 22 21 20 19 18 16 16 17 18 19 21 20 20 20 20 21 19 17 16 16 17 17 16 14 13 14 13 12 11 10 10 10 10 8 8 8 9 9 9 10
20 23 24 23 23 22 22 21 20 19 18 19 20 21 22 22 23 22 23 23 20 18 17 16 15 14 12 10 11 11 10 9 9 8 8 8 7 7 7 8 7 8 9
10 17 25 27 27 26 25 24 23 22 22 21 22 23 24 24 25 25 25 24 22 20 17 16 14 13 12 10 9 9 9 7 7 7 6 7 5 5 5 5 5 6 8
5 15 15 24 29 29 30 28 28 26 25 23 23 24 26 26 27 28 27 26 25 22 19 17 15 14 13 10 9 8 7 6 5 4 4 4 4 4 4 3 3 5 7
6 12 16 20 27 30 32 32 32 30 29 27 26 26 27 28 28 29 30 29 28 25 22 20 17 15 14 13 10 8 7 7 5 4 3 2 3 3 3 2 2 5 6
15 12 15 18 20 30 33 32 35 35 33 32 30 28 28 29 30 29 29 30 30 28 26 24 22 20 19 17 14 12 10 9 8 7 5 3 2 4 5 3 1 5 5
17 17 13 17 19 21 28 36 36 38 38 37 35 33 32 31 31 31 31 30 29 29 28 27 26 24 23 21 19 16 13 12 11 11 10 8 5 4 6 6 5 5 6
19 19 18 13 14 21 24 30 36 36 39 41 40 37 36 34 33 33 32 32 31 31 30 29 28 27 26 25 23 21 17 17 15 14 14 12 10 7 7 6 8 8 8
17 17 16 16 13 20 23 22 30 34 37 38 40 43 40 39 37 35 34 34 33 34 33 33 31 30 28 27 26 25 22 20 20 19 17 17 16 13 11 11 11 10 11
20 15 15 16 12 16 20 20 25 30 37 38 37 37 41 42 41 39 37 36 35 37 36 34 33 33 32 29 27 28 27 25 25 24 23 21 21 20 18 16 15 15 13
27 22 15 13 14 12 16 19 23 23 33 35 37 33 34 40 45 43 41 40 38 38 38 37 37 36 35 33 30 18 18 25 30 29 28 25 23 24 24 22 20 19 18
27 27 24 18 14 15 14 18 23 28 25 31 33 35 35 32 41 45 44 43 42 40 40 39 39 39 38 37 35 21 14 18 14 31 34 31 29 27 28 27 26 24 23
30 27 25 22 18 14 15 14 14 21 19 24 34 34 34 32 36 42 45 45 45 43 42 42 41 41 40 41 38 39 33 15 12 12 30 36 34 33 31 31 30 29 28
28 29 27 25 20 18 15 15 15 12 19 31 21 25 32 28 29 33 40 43 46 46 45 45 44 43 43 42 44 38 42 42 29 20 14 21 36 35 35 35 34 32 31
28 29 29 28 26 21 19 16 15 15 15 20 24 24 20 22 29 28 31 34 38 45 47 47 47 46 45 44 45 45 40 44 41 33 25 20 24 27 30 35 36 35 33
Wind_Direction
167 165 156 155 151 148 147 153 153 153 150 150 145 136 129 128 129 132 133 131 130 122 117 114 116 117 115 112 110 111 114 113 111 105 101 102 103 100 99 100 97 96 96
161 161 156 153 148 147 147 153 156 156 157 155 146 137 131 131 132 135 136 133 126 121 121 123 123 115 111 111 112 114 110 107 103 104 105 102 99 97 97 96 94 91 94
161 158 155 153 147 145 147 152 159 162 160 150 142 136 133 133 134 138 136 133 123 122 121 119 115 115 113 111 113 111 110 112 113 113 107 100 99 97 98 97 96 95 97
161 157 155 153 149 144 147 152 156 154 151 146 140 137 136 135 136 137 133 127 124 120 117 116 117 115 114 113 110 111 113 113 112 107 103 101 101 100 100 99 97 98 99
162 159 157 155 150 146 149 152 153 150 147 144 141 140 137 135 139 138 132 129 125 118 118 117 115 116 115 114 113 113 116 116 114 108 109 109 105 108 107 102 101 99 97
165 163 161 158 154 151 153 154 154 151 148 146 146 142 139 141 142 139 135 130 122 120 119 117 117 117 118 117 115 113 112 114 123 120 115 116 115 115 113 108 104 98 98
167 167 167 165 160 158 157 156 155 153 152 151 149 146 146 145 143 141 137 131 125 123 122 120 119 120 119 120 115 112 111 116 124 117 118 118 115 116 112 110 108 107 106
173 170 170 171 169 167 167 162 160 157 156 155 154 153 150 149 146 144 143 135 128 127 125 122 119 118 118 116 115 115 113 113 118 119 119 117 116 116 116 116 116 114 114
178 176 174 176 177 176 177 171 166 164 163 162 160 157 155 153 151 151 150 139 133 131 129 124 118 115 113 112 112 111 111 112 118 118 118 119 119 118 118 117 116 111 104
183 183 184 184 183 185 183 180 174 173 171 170 167 163 160 158 157 158 157 147 139 136 132 126 122 118 114 109 105 106 109 111 115 118 118 119 121 123 122 115 110 104 103
193 193 193 193 193 193 193 189 183 180 179 178 175 172 168 166 164 166 167 158 149 142 138 134 132 126 121 115 109 103 101 108 115 118 120 120 120 124 121 112 109 109 112
202 204 204 204 203 202 202 200 195 190 189 187 186 182 178 176 172 171 174 171 164 156 148 144 143 143 134 130 124 115 105 107 115 120 122 122 121 122 117 112 112 115 120
220 213 213 214 214 212 212 210 207 203 199 197 194 193 187 184 181 178 178 180 179 177 168 161 157 156 150 139 141 130 121 111 113 119 125 122 121 121 119 122 123 124 127
283 253 234 222 219 220 221 219 218 217 210 207 203 199 199 194 191 186 186 188 189 188 188 178 171 170 167 154 151 151 136 127 113 116 128 129 130 129 130 128 122 133 131
236 267 265 245 238 230 228 225 225 224 223 218 213 208 206 205 200 195 193 195 197 198 199 200 193 188 186 178 171 173 171 153 140 126 127 142 144 149 147 132 128 146 141
288 250 248 268 254 242 246 238 232 230 231 228 224 218 214 211 211 206 201 200 203 205 208 209 210 208 203 199 198 200 200 199 193 189 152 154 180 180 170 157 149 165 158
2 319 265 239 253 254 242 242 243 239 235 234 232 229 225 219 215 216 214 208 206 208 212 215 214 214 216 215 213 216 224 220 218 214 198 207 216 219 206 205 175 191 179
356 347 323 263 245 257 253 247 241 239 241 239 236 232 232 229 224 220 218 218 215 211 213 217 219 220 220 221 224 226 229 228 230 227 221 223 234 242 227 220 213 210 211
351 344 338 306 243 241 255 251 249 245 245 245 243 239 234 233 233 228 223 220 219 219 218 219 222 223 225 226 229 232 234 230 231 231 230 233 235 235 234 237 233 228 231
353 346 338 325 288 245 243 253 248 248 247 250 249 245 238 235 233 234 232 226 223 223 222 222 225 228 229 229 232 236 238 236 234 234 234 236 234 236 236 238 239 238 236
356 352 341 335 311 281 248 241 248 256 249 247 252 252 246 238 236 234 236 235 230 227 227 227 227 229 231 231 233 236 239 241 237 234 234 236 238 238 238 240 242 242 241
355 351 353 345 340 308 291 263 247 246 259 255 257 254 256 243 238 237 237 238 236 235 232 230 230 232 232 230 230 228 239 245 241 235 234 233 235 239 240 241 244 245 243
359 352 348 352 340 333 314 287 273 254 259 259 258 257 257 252 241 239 239 240 240 239 239 237 234 233 235 235 230 222 227 236 241 240 237 236 236 239 243 244 246 247 249
3 358 350 346 348 340 326 315 294 271 259 257 261 257 261 258 245 241 242 244 244 243 243 243 241 239 237 238 235 232 226 233 226 251 242 238 238 240 242 245 248 249 251
4 3 0 356 352 347 345 333 322 292 269 262 263 265 262 267 268 253 248 247 248 248 247 246 245 243 241 240 242 240 235 234 238 238 253 248 239 241 242 244 248 252 254
7 7 4 2 359 356 347 342 333 323 285 268 262 262 265 261 268 272 258 249 251 251 249 248 249 247 245 245 244 245 240 236 235 237 241 246 253 253 252 253 253 256 256